星链-5864 (STARLINK-5864 )

导读 | 豆包AI

STARLINK-5864是美国SpaceX公司星链星座的V1.5批次互联网卫星,于2023年3月17日由猎鹰9火箭发射升空。卫星质量约297kg,运行在高度约550公里的近地轨道,配备氪离子推进器可完成轨道维持与主动避碰,搭载相控阵天线提供高速卫星互联网接入,为全球用户提供低延迟宽带通信服务,是星链第一代星座组网的重要组成卫星。

基本信息
目录编号:
55940
目录名称:
STARLINK-5864
国际标识:
2023-037AC
轨道中心:
EARTH
卫星名称:
星链-5864
卫星全名:
星链-5864 (STARLINK-5864 )
卫星状态:
在轨 (已飞行1094 天)
发射日期:
2023-03-17 UTC
国别 :
美国 (US)
星等 :
--
轨道信息
数据来源 国际轨道数据 AOE轨道数据
星历时间 2026-03-15T14:04:05+0800
10小时前
查看轨道信息
2026-03-12T16:00:00+0800
3天前
查看轨道信息
半长轴 6950.185km 6950.178km
偏心率 0.0002401 0.0002621
轨道倾角 69.998° 69.998°
近地点辐角 271.827° 266.948°
升交点赤经 270.422° 277.782°
平近点角 88.261° 189.825°
近地点 570.379km 570.219km
远地点 573.717km 573.863km
周期 96.107分钟 96.107分钟
每日圈数 14.983327 14.98335
详细信息
固有亮度:
5
最大亮度:
2.5
卫星平台:
Starlink v1.5
覆盖范围:
全球
运营商:
太空探索技术公司
运营商所在国:
美国
制造商(研发单位):
太空探索技术公司
制造商所在国:
美国
使用方式:
暂无
卫星简介
星链(Starlink)计划是由太空探索技术公司(SpaceX)提出的一个巨型低轨卫星互联网星座项目,计划在2019年至2024年间在太空搭建由约1.2万颗卫星组成的“星链”网络,其中1584颗将部署在地球上空550千米处的近地轨道,并从2020年开始工作。该卫星仍在工作。
2D轨道图
3D轨道图
轨道高度分析图
轨道倾角分析图
轨道综合分析图
查看轨道综合分析图